Flagstaff, AZ

4:51 AM MST on December 07, 2016 (GMT -0700)
Flagstaff Pulliam

Weather History for KFLG - July, 2013

Change the Weather History Date:

Sunday, July 14, 2013

  Actual Average Record
Temperature  
Mean Temperature 69 °F 66 °F  
Max Temperature 82 °F 82 °F 92 °F (1902)
Min Temperature 55 °F 51 °F 38 °F (1952)
Degree Days  
Heating Degree Days 0 1  
Month to date heating degree days 0 19  
Since 1 July heating degree days 0 19  
Cooling Degree Days 4 2  
Month to date cooling degree days 58 28  
Year to date cooling degree days 108 45  
Growing Degree Days 18 (Base 50)    
Moisture  
Dew Point 51 °F    
Average Humidity 58    
Maximum Humidity 86    
Minimum Humidity 30    
Precipitation  
Precipitation T in 0.08 in 0.84 in (1967)
Month to date precipitation 3.43 0.83  
Year to date precipitation 8.69 9.30  
Snow  
Snow 0.00 in 0.00 in 0.00 in (2002)
Month to date snowfall 0.0 0.0  
Since 1 July snowfall 0.0 0.0  
Snow Depth 0.00 in    
Sea Level Pressure  
Sea Level Pressure 29.99 in    
Wind  
Wind Speed 4 mph (NW)    
Max Wind Speed 16 mph    
Max Gust Speed 30 mph    
Visibility 10 miles    
Events Rain    
T = Trace of Precipitation, MM = Missing Value Source: NWS Daily Summary

Daily Weather History Graph

Daily Weather History Graph

Search for Another Location

Airport or City:

Trip Planner

Search our weather history database for the weather conditions in past years. The results will help you decide how hot, cold, wet, or windy it might be!

Date:

Astronomy

Jul. 14, 2013 Rise Set
Actual Time 5:23 AM MST 7:41 PM MST
Civil Twilight 4:54 AM MST 8:10 PM MST
Nautical Twilight 4:18 AM MST 8:46 PM MST
Astronomical Twilight 3:39 AM MST 9:25 PM MST
Moon 11:27 AM MST (7/14) 11:13 PM MST (7/14)
Length of Visible Light 15h 16m
Length of Day
14h 18m
Waxing Crescent, 36% of the Moon is Illuminated
Jul 14
Waxing Crescent
Jul 15
First Quarter
Jul 22
Full
Jul 29
Last Quarter
Aug 6
New

Hourly Weather History & Observations

Time (MST) Temp. Dew Point Humidity Pressure Visibility Wind Dir Wind Speed Gust Speed Precip Events Conditions
12:57 AM 59.0 °F 53.1 °F 81% 29.99 in 10.0 mi Calm Calm - N/A   Clear
1:57 AM 57.0 °F 52.0 °F 83% 29.97 in 10.0 mi Calm Calm - N/A   Clear
2:57 AM 55.9 °F 52.0 °F 87% 29.99 in 10.0 mi Calm Calm - N/A   Clear
3:57 AM 55.9 °F 52.0 °F 87% 29.99 in 10.0 mi Calm Calm - N/A   Mostly Cloudy
4:57 AM 55.9 °F 51.1 °F 84% 30.00 in 10.0 mi Calm Calm - N/A   Overcast
5:57 AM 55.9 °F 52.0 °F 87% 30.02 in 10.0 mi Calm Calm - N/A   Clear
6:57 AM 60.1 °F 52.0 °F 75% 30.03 in 10.0 mi Calm Calm - N/A   Mostly Cloudy
7:57 AM 66.0 °F 52.0 °F 60% 30.03 in 10.0 mi Calm Calm - N/A   Mostly Cloudy
8:57 AM 66.9 °F 53.1 °F 61% 30.05 in 10.0 mi WSW 8.1 mph - N/A   Overcast
9:57 AM 66.9 °F 53.1 °F 61% 30.04 in 10.0 mi North 6.9 mph - 0.00 in   Overcast
10:57 AM 68.0 °F 54.0 °F 61% 30.04 in 10.0 mi WNW 4.6 mph - 0.00 in   Overcast
11:57 AM 77.0 °F 48.9 °F 37% 30.00 in 10.0 mi Calm Calm - N/A   Clear
12:57 PM 80.1 °F 46.9 °F 31% 29.97 in 10.0 mi NNE 3.5 mph - N/A   Clear
1:57 PM 81.0 °F 46.0 °F 29% 29.94 in 10.0 mi South 5.8 mph - N/A   Clear
2:57 PM 73.9 °F 51.1 °F 45% 29.96 in 10.0 mi SSW 16.1 mph 21.9 mph N/A   Scattered Clouds
3:57 PM 71.1 °F 53.1 °F 53% 29.98 in 10.0 mi NNW 6.9 mph - 0.00 in Rain Light Rain
4:57 PM 70.0 °F 52.0 °F 53% 29.98 in 10.0 mi NW 8.1 mph - 0.00 in   Clear
5:57 PM 71.1 °F 52.0 °F 51% 29.96 in 10.0 mi WNW 9.2 mph - N/A   Scattered Clouds
6:57 PM 71.1 °F 51.1 °F 49% 29.93 in 10.0 mi Variable 6.9 mph - N/A   Clear
7:57 PM 69.1 °F 48.9 °F 49% 29.94 in 10.0 mi WNW 8.1 mph 17.3 mph N/A   Clear
8:57 PM 66.9 °F 48.9 °F 52% 29.94 in 10.0 mi Calm Calm - N/A   Clear
9:57 PM 68.0 °F 48.9 °F 50% 29.98 in 10.0 mi ENE 8.1 mph - N/A   Mostly Cloudy
10:57 PM 66.0 °F 53.1 °F 63% 30.00 in 10.0 mi East 9.2 mph - N/A   Mostly Cloudy
11:57 PM 63.0 °F 54.0 °F 72% 29.96 in 10.0 mi NNE 4.6 mph - N/A   Overcast